Regional Weather Roundup
Issued by NWS

Home | Current Version | Previous Version | Graphics & Text | Print | Product List | Glossary On
Versions: 1 2 3 4 5 6 7 8 9 10 11 12 13 14 15 16 17 18 19 20 21 22 23 24 25 26 27 28 29 30 31 32 33 34 35 36 37 38 39 40 41 42 43 44 45 46 47 48 49 50
000
ASUS43 KLOT 270910
RWRIL

ILLINOIS REGIONAL WEATHER ROUNDUP
NATIONAL WEATHER SERVICE CHICAGO/ROMEOVILLE IL
300 AM CST THU NOV 27 2014

NOTE: "FAIR" INDICATES FEW OR NO CLOUDS BELOW 12,000 FEET WITH NO
SIGNIFICANT WEATHER AND/OR OBSTRUCTIONS TO VISIBILITY.

* THESE STATIONS ARE NOT UNDER NWS QUALITY CONTROL. THEY ALSO MAY NOT
  REPORT WEATHER SUCH AS PRECIPITATION OR FOG.

ILZ001-002-007-009-015-016-024-271000-
NORTHWEST ILLINOIS

CITY           SKY/WX    TMP DP  RH WIND       PRES   REMARKS
MOLINE         CLOUDY    25  20  81 NW8       30.32R WCI  16
STERLING*      CLOUDY    23  18  80 NW7       30.29R WCI  15
SAVANNA*       CLOUDY    24  21  89 NW3       30.31R FOG
$$

ILZ003-004-008-010-011-017-018-271000-
NORTH CENTRAL ILLINOIS

CITY           SKY/WX    TMP DP  RH WIND       PRES   REMARKS
ROCKFORD       CLOUDY    21  16  81 NW8       30.28R HAZE    WCI  11
FREEPORT*      MOCLDY    20  17  88 NW7       30.28S WCI  11
ROCHELLE*      CLOUDY    20  18  90 NW6       30.27S FOG     WCI  13
DE KALB*       CLOUDY    18  15  91 NW9       30.24S FOG     WCI   6
PERU*          CLOUDY    23  20  88 NW10      30.28S FOG     WCI  12
$$

ILZ005-006-012>014-019>023-271000-
NORTHEAST ILLINOIS

CITY           SKY/WX    TMP DP  RH WIND       PRES   REMARKS
CHICAGO-OHARE  CLOUDY    24  17  74 NW16      30.22R WCI  11
CHICAGO-MIDWAY FLURRIES  28  21  75 NW10      30.22R WCI  19
AURORA         CLOUDY    20  15  81 NW10      30.25R HAZE    WCI   9
LANSING*       MIX PCPN  28  24  88 NW7       30.21R WCI  20
JOLIET*        CLOUDY    23  19  84 NW7       30.24R FOG     WCI  14
WAUKEGAN       CLOUDY    20  16  84 NW8       30.22R WCI  10
DUPAGE AIRPORT MOCLDY    20  15  81 NW10      30.23R WCI   9
KANKAKEE*      CLOUDY   N/A N/A N/A W9        30.23R
WHEELING       CLOUDY    22  17  81 NW9       30.25R WCI  12
MORRIS*        CLOUDY    22  20  91 NW8       30.25R FOG     WCI  13
ROMEOVILLE*    CLOUDY    24  20  85 NW9       30.24R WCI  14
NORTHERLY ISL    N/A     28  21  75 NW12        N/A  WCI  18
$$

LMZ740>746-271000-
SOUTHERN LAKE MICHIGAN

STATION/POSITION SKY/WX   TEMP    WIND        PRES    VSBY  WAVE
                          AIR SEA DIR/SP/G                  HT/PER
                          (F)     (DEG/KT/KT) (MB)    (MI)  (FT/S)
SOUTHERN BUOY              32 42  320/ 17/ 21 1022.3S         4/ 5
WAUKEGAN HARBOR            22     310/ 10/ 15   N/A
HARRISON CRIB              27     310/ 13/ 15   N/A
BURNHAM HARBOR             28     300/  8/ 12   N/A
CALUMET HARBOR             28     280/  8/ 12 1021.7R
MICHIGAN CITY              29     160/  4/  7   N/A
$$

ILZ025>027-034>036-040-047-049-050-058-095>099-271000-
WEST-CENTRAL ILLINOIS

CITY           SKY/WX    TMP DP  RH WIND       PRES   REMARKS
QUINCY         CLOUDY    27  24  89 NW8       30.36R FOG     WCI  19
GALESBURG*     MOCLDY    22  20  93 W6        30.33R FOG     WCI  14
MACOMB*        CLOUDY    25  24  95 NW9       30.36R FOG     WCI  16
JACKSONVILLE*  CLOUDY    26  21  82 NW7       30.34R WCI  18
PITTSFIELD*    CLOUDY    27  24  89 NW3       30.36R
$$

ILZ028>032-037-038-041>044-048-051>054-059>061-271000-
CENTRAL ILLINOIS

CITY           SKY/WX    TMP DP  RH WIND       PRES   REMARKS
PONTIAC        CLOUDY    24  22  90 NW16      30.27R FOG     WCI  11
BLOOMINGTON    MOCLDY    23  19  85 NW12      30.28R WCI  12
DECATUR        CLEAR     24  19  81 NW14      30.28R WCI  12
PEORIA         CLOUDY    25  18  74 NW3       30.31R
LACON*         CLOUDY    22  18  83 NW6       30.30R FOG     WCI  14
LINCOLN*       CLOUDY    24  20  87 W6        30.32R WCI  17
SPRINGFIELD    MOCLDY    24  20  84 NW12      30.33R WCI  13
TAYLORVILLE    PTCLDY    23  19  86 N8        30.31R WCI  14
$$

ILZ033-039-045-046-055>057-062-063-271000-
EAST-CENTRAL ILLINOIS

CITY           SKY/WX    TMP DP  RH WIND       PRES   REMARKS
CHAMPAIGN      CLEAR     22  19  89 NW10      30.25R WCI  11
DANVILLE*      CLEAR     23  19  87 NW7       30.20R WCI  14
RANTOUL*       PTCLDY    24  21  89 NW7       30.24R WCI  15
MATTOON        CLEAR     23  20  88 N13       30.24R WCI  11
PARIS*         CLEAR     26  23  87 NW9       30.24R WCI  17
$$

ILZ079-100>102-271000-
SOUTHWEST ILLINOIS

CITY           SKY/WX    TMP DP  RH WIND       PRES   REMARKS
ALTON          CLOUDY    29  26  89 N9        30.33R WCI  21
BELLEVILLE     CLOUDY    30  30  99 N9        30.31R WCI  22
CAHOKIA*       CLOUDY    32  28  85 NW13      30.34R WCI  22
SPARTA*        CLOUDY    30  28  94 N9        30.31R FOG     WCI  22
$$

ILZ064>066-069>071-074>076-080>082-084>086-088>090-092>094-271000-
SOUTH-CENTRAL ILLINOIS

CITY           SKY/WX    TMP DP  RH WIND       PRES   REMARKS
CARBONDALE     CLOUDY    33  31  92 N10       30.28R FOG     WCI  25
CAIRO*         CLOUDY    38  33  80 NW10G16   30.26R WCI  32
EFFINGHAM*     MOCLDY    27  21  80 NW8       30.25R WCI  18
MARION         CLOUDY    34  32  93 N9        30.27R FOG     WCI  26
MT. VERNON     CLOUDY    30  25  80 CALM      30.27R
CENTRALIA*     CLOUDY    29  27  90 NW8       30.28R WCI  21
SALEM*           N/A     31  28  88 N7        30.28R WCI  24
METROPOLIS*    CLOUDY    37  37 100 NW9         N/A  WCI  30
$$

ILZ067-068-072-073-078-083-087-091-271000-
SOUTHEAST ILLINOIS

CITY           SKY/WX    TMP DP  RH WIND       PRES   REMARKS
LAWRENCEVILLE  MOCLDY    29  27  92 N8        30.22R WCI  21
FLORA*         MIX PCPN  29  28  96 N8        30.26R WCI  21
FAIRFIELD*     CLOUDY    31  29  92 NW5       30.24R FOG     WCI  26
HARRISBURG*    CLOUDY    32  32 100 N7        30.27R FOG     WCI  26
ROBINSON*      MOCLDY    29  25  84 N9        30.23R WCI  21
CARMI*         CLOUDY    33  32  98 N7        30.23R WCI  27
$$

ABBREVIATIONS USED IN REMARKS
   TC - TEMPERATURE IN CELSIUS
  WCI - WIND CHILL INDEX
   HX - HEAT INDEX
  VSB - VISIBILITY
$$




USA.gov is the U.S. government's official web portal to all federal, state and local government web resources and services.